COSMOS 1275 DEB, 42215

Orbit data source: Space-Track

COSMOS 1275 DEB, 42215 is space debris in LEO originally from a launch on Thu, 04 Jun 1981 UTC launched from the Plesetsk Missile And Space Complex (PKMTR). Debris objects in space refer to the collection of defunct objects orbiting the Earth. Examples of debris include non-operational satellites, rocket bodies, and fragments generated from explosions, collisions, or faulty payload assembly.

Loading next visibility...
Identifier
42215, 1981-053UF
Orbit
LEO
Country
Flag of CISCIS
Related business
Manufacturer
Unknown
Mission
Spacecraft
Bus & Motor
Unknown
Mass
Unknown
Launch date (UTC)
1981-06-04 (45 years ago)
Launch vehicle
Unknown
Launch site
Plesetsk Missile And Space Complex (PKMTR)
Object type
Payload
Rocket body
Debris
Shape & HBR
Unknown shape, 0.1 m
Radar Cross Section
Small (<0.1 m²)

Expand to show TLE details & history
Last TLE update: 2 weeks ago

TLE from 2 weeks ago
0 COSMOS 1275 DEB
1 42215U 81053UF  25339.11717294  .00002205  00000-0  20613-2 0  9998
2 42215  82.8983 119.7442 0107184 241.8707 117.1588 13.78881722603919
Epoch: 2025-12-05T02:48Z
TLE epoch observation values (Epoch: 2025-12-05T02:48:43.742Z)
Latitude
0.00004°
Longitude
3.39808°
Altitude
1,007.37 km
Speed
7.33 km/s
True Right ascension
07h 58m 58s
True Declination
0° 00' 00"
Sunlit
Object was in full shadow at epoch
Visualization orbit readout
Latitude
Unknown
Longitude
Unknown
Altitude
Unknown
Speed
Unknown
Apparent Right ascension
Unknown
Apparent Declination
Unknown
Sunlit
N/A
Visualization observer readout
Local Sidereal Time
21:15:47
Azimuth
Unknown
Elevation
Unknown
Doppler factor
Unknown
Orbital elements
Apogee altitude
1,043.707 km
Perigee altitude
886.294 km
Semi-major axis
7,343.137 km
Eccentricity
0.01072
Inclination
82.8983°
RAAN
119.7442°
Arg. of periapsis
241.8707°
True anomaly
118.24491°
Mean anomaly
117.1588°
Eccentric anomaly
117.70252°
Mean motion
3.44922 °/min
Orbital period
104.37 mins
BSTAR
0.0020613
Loading maneuver chart data...
Computing Atmospheric mass density...
Loading historical data...
Loading historical data...
Loading historical data...
Loading historical data...
Loading historical data...
Loading historical data...
Loading historical data...

Documentation

Showing up to 5 results
|